EHI
3 1 0 0 0 0 0 0 0 0 0 0 0 0 0 0 0 0 0 0 0 0 0 0 0 0 0 0 0 0 0 0 0 0 0 0 0 0 0 0 0 0 0 0 0 0 0 0 0
1 0 0 0 0 0 0 0 0 0 0 0 0 0 0 0 0 0 0 0 0 0 0 0 0 0 0 0 0 0 0 0 0 0 0 0 0 0 0 0 0 0 0 0 0 0 0 0 0
0 0 0 0 0 0 0 0 0 0 0 0 0 0 0 0 0 0 0 0 0 0 0 0 0 0 0 0 0 0 0 0 0 0 0 0 0 0 0 0 0 0 0 0 0 0 0 0 0
0 0 0 0 0 0 0 0 0 0 0 0 0 0 0 0 0 0 0 0 0 0 0 0 0 0 0 0 0 0 0 0 0 0 0 0 0 0 0 0 0 0 0 0 0 0 0 0 0
0 0 0 0 0 0 0 0 0 0 0 0 0 0 0 0 0 0 0 0 0 0 0 0 0 0 0 0 0 0 0 0 0 0 0 0 0 0 0 0 0 0 0 0 0 0 0 0 0
0 0 0 0 0 0 0 0 0 0 0 0 0 0 0 0 0 0 0 0 0 0 0 0 0 0 0 0 0 0 0 0 0 0 0 0 0 0 0 0 0 0 0 0 0 0 0 0 0
0 0 0 0 0 0 0 0 0 0 0 0 0 0 0 0 0 0 0 0 0 0 0 0 0 0 0 0 0 0 0 0 0 0 0 0 0 0 0 0 0 0 0 0 0 0 0 0 0
0 0 0 0 0 0 0 0 0 0 0 0 0 0 0 0 0 0 0 0 0 0 0 0 0 0 0 0 0 0 0 0 0 0 0 0 0 0 0 0 0 0 0 0 0 0 0 0 0
0 0 0 0 0 0 0 0 0 0 0 0 0 0 0 0 0 0 0 0 0 0 0 0 0 0 0 0 0 0 0 0 0 0 0 0 0 0 0 0 0 0 0 0 0 0 0 0 0
0 0 0 0 0 0 0 0 0 0 0 0 0 0 0 0 0 0 0 0 0 0 0 0 0 0 0 0 0 0 0 0 0 0 0 0 0 0 0 0 0 0 0 0 0 0 0 0 0
0 0 0 0 0 0 0 0 0 0 0 0 0 0 0 0 0 0 0 0 0 0 0 0 0 0 0 0 0 0 0 0 0 0 0 0 0 0 0 0 0 0 0 0 0 0 0 0 0
0 0 0 0 0 0 0 0 0 0 0 0 0 0 0 0 0 0 0 0 0 0 0 0 0 0 0 0 0 0 0 0 0 0 0 0 0 0 0 0 0 0 0 0 0 0 0 0 0
0 0 0 0 0 0 0 0 0 0 0 0 0 0 0 0 0 0 0 0 0 0 0 0 0 0 0 0 0 0 0 0 0 0 0 0 0 0 0 0 0 0 0 0 0 0 0 0 0
0 0 0 0 0 0 0 0 0 0 0 0 0 0 0 0 0 0 0 0 0 0 0 0 0 0 0 0 0 0 0 0 0 0 0 0 0 0 0 0 0 0 0 0 0 0 0 0 0
0 0 0 0 0 0 0 0 0 0 0 0 0 0 0 0 0 0 0 0 0 0 0 0 0 0 0 0 0 0 0 0 0 0 0 0 0 0 0 0 0 0 0 0 0 0 0 0 0
0 0 0 0 0 0 0 0 0 0 0 0 0 0 0 0 0 0 0 0 0 0 0 0 0 0 0 0 0 0 0 0 0 0 0 0 0 0 0 0 0 0 0 0 0 0 0 0 0
0 0 0 0 0 0 0 0 0 0 0 0 0 0 0 0 0 0 0 0 0 0 0 0 0 0 0 0 0 0 0 0 0 0 0 0 0 0 0 0 0 0 0 0 0 0 0 0 0
0 0 0 0 0 0 0 0 0 0 0 0 0 0 0 0 0 0 0 0 0 0 0 0 0 0 0 0 0 0 0 0 0 0 0 0 0 0 0 0 0 0 0 0 0 0 0 0 0
0 0 0 0 0 0 0 0 0 0 0 0 0 0 0 0 0 0 0 0 0 0 0 0 0 0 0 0 0 0 0 0 0 0 0 0 0 0 0 0 0 0 0 0 0 0 0 0 0
0 0 0 0 0 0 0 0 0 0 0 0 0 0 0 0 0 0 0 0 0 0 0 0 0 0 0 0 0 0 0 0 0 0 0 0 0 0 0 0 0 0 0 0 0 0 0 0 0
0 0 0 0 0 0 0 0 0 0 0 0 0 0 0 0 0 0 0 0 0 0 0 0 0 0 0 0 0 0 0 0 0 0 0 0 0 0 0 0 0 0 0 0 0 0 0 0 0
0 0 0 0 0 0 0 0 0 0 0 0 0 0 0 0 0 0 0 0 0 0 0 0 0 0 0 0 0 0 0 0 0 0 0 0 0 0 0 0 0 0 0 0 0 0 0 0 0
0 0 0 0 0 0 0 0 0 0 0 0 0 0 0 0 0 0 0 0 0 0 0 0 0 0 0 0 0 0 0 0 0 0 0 0 0 0 0 0 0 0 0 0 0 0 0 0 0
0 0 0 0 0 0 0 0 0 0 0 0 0 0 0 0 0 0 0 0 0 0 0 0 0 0 0 0 0 0 0 0 0 0 0 0 0 0 0 0 0 0 0 0 0 0 0 0 0
0 0 0 0 0 0 0 0 0 0 0 0 0 0 0 0 0 0 0 0 0 0 0 0 0 0 0 0 0 0 0 0 0 0 0 0 0 0 0 0 0 0 0 0 0 0 0 0 0
0 0 0 0 0 0 0 0 0 0 0 0 0 0 0 0 0 0 0 0 0 0 0 0 0 0 0 0 0 0 0 0 0 0 0 0 0 0 0 0 0 0 0 0 0 0 0 0 0
0 0 0 0 0 0 0 0 0 0 0 0 0 0 0 0 0 0 0 0 0 0 0 0 0 0 0 0 0 0 0 0 0 0 0 0 0 0 0 0 0 0 0 0 0 0 0 0 0
0 0 0 0 0 0 0 0 0 0 0 0 0 0 0 0 0 0 0 0 0 0 0 0 0 0 0 0 0 0 0 0 0 0 0 0 0 0 0 0 0 0 0 0 0 0 0 0 0
0 0 0 0 0 0 0 0 0 0 0 0 0 0 0 0 0 0 0 0 0 0 0 0 0 0 0 0 0 0 0 0 0 0 0 0 0 0 0 0 0 0 0 0 0 0 0 0 0
0 0 0 0 0 0 0 0 0 0 0 0 0 0 0 0 0 0 0 0 0 0 0 0 0 0 0 0 0 0 0 0 0 0 0 0 0 0 0 0 0 0 0 0 0 0 0 0 0
Wind_Speed
6 8 6 2 3 3 7 6 8 7 6 6 7 8 9 8 8 10 4 5 5 7 9 12 17 18 18 19 20 20 21 22 22 23 23 23 23 23 23 24 24 24 25 25 25 25 25 25 26
6 6 4 3 3 3 6 7 10 9 8 6 5 8 9 8 10 9 6 4 6 8 9 11 15 17 18 19 19 20 20 21 22 22 22 23 23 23 23 23 23 24 24 24 24 25 25 25 25
9 7 4 1 5 5 7 10 12 10 7 5 5 8 7 7 8 6 4 3 7 7 8 10 15 16 17 18 19 19 20 20 21 22 22 22 22 22 22 22 23 23 23 23 24 24 24 25 25
5 4 2 5 8 7 9 13 12 10 5 5 9 8 6 6 5 7 5 5 7 7 6 8 13 14 16 17 18 18 19 20 20 21 22 22 22 22 22 22 23 23 23 23 23 23 24 24 25
3 4 2 6 6 8 11 12 10 9 7 5 8 8 7 7 10 9 6 6 7 6 5 6 11 13 14 15 16 17 18 19 19 20 21 22 21 21 22 22 23 23 23 23 24 23 24 24 24
3 4 2 6 8 8 7 7 5 9 7 4 7 9 7 8 8 7 6 6 6 6 5 5 10 11 11 12 14 15 16 18 18 19 21 22 21 21 22 22 23 23 24 24 24 24 24 24 24
3 3 4 8 7 6 7 4 4 7 7 5 5 8 8 9 8 7 6 6 6 5 5 4 5 7 11 12 12 14 15 17 18 18 20 21 21 21 22 22 23 24 24 25 25 25 26 25 25
4 0 3 6 8 6 8 3 3 4 6 4 1 5 9 12 9 7 6 5 6 5 5 5 5 5 5 6 11 13 14 15 17 18 19 20 20 19 21 20 23 24 24 25 25 25 26 26 25
3 2 3 4 6 8 10 5 4 5 8 4 4 7 13 17 11 7 6 5 5 6 5 5 5 5 5 5 9 10 12 13 14 12 18 16 8 8 10 17 23 23 24 25 25 26 26 25 22
5 3 6 6 5 9 10 7 7 5 7 5 7 11 15 12 10 8 6 5 5 6 4 4 4 4 5 6 5 3 5 5 6 5 7 5 6 7 11 18 22 23 24 23 24 26 23 18 9
6 6 5 6 7 10 8 8 8 7 6 8 12 14 13 11 9 7 5 6 6 6 4 4 3 4 4 3 4 3 2 3 4 5 6 5 5 5 6 5 9 10 14 9 13 12 9 9 9
6 6 6 5 4 7 7 7 6 7 2 4 15 17 14 11 9 7 6 7 6 6 4 3 3 3 3 3 3 3 2 2 3 4 5 4 3 4 5 5 6 5 5 6 6 6 9 9 10
6 5 7 5 2 4 5 5 4 5 6 7 14 15 13 11 9 6 6 6 6 6 5 3 2 3 2 3 3 4 3 3 3 3 4 5 4 4 5 5 5 6 5 6 7 7 9 9 10
7 8 7 6 5 3 4 4 2 5 9 10 12 12 11 10 9 8 6 6 6 6 4 4 3 2 2 2 3 3 3 3 3 3 4 5 4 4 5 6 6 6 5 6 6 8 8 7 8
9 7 5 5 5 4 3 6 9 7 10 10 11 10 11 10 9 9 8 6 6 6 4 4 1 1 2 3 3 3 3 3 2 2 4 4 5 5 5 5 5 5 6 7 6 8 6 8 9
6 5 5 8 7 5 3 7 7 12 11 10 10 10 10 9 9 8 8 7 7 6 4 3 1 2 2 3 3 3 3 3 2 2 3 4 5 5 5 5 5 6 6 6 6 6 6 7 7
6 6 4 8 8 7 5 5 7 11 11 11 10 10 10 10 10 9 9 8 7 5 5 3 2 1 2 3 3 3 3 3 2 2 2 3 4 5 4 4 5 6 5 5 8 7 7 8 8
3 5 4 6 10 8 7 8 8 11 11 11 11 10 11 12 12 10 10 9 8 6 4 3 2 0 2 2 3 3 3 3 3 2 2 4 3 5 5 5 5 6 5 5 6 8 7 7 8
5 5 7 2 7 5 9 11 8 14 11 10 10 11 11 11 11 11 10 10 9 7 5 4 2 1 1 1 2 3 3 3 3 2 3 4 4 5 5 5 5 5 5 7 8 7 9 8 7
5 6 5 5 6 5 7 10 6 14 15 12 11 11 11 11 10 11 11 10 9 8 7 4 3 1 1 1 2 3 4 3 4 2 3 4 4 5 6 5 5 5 6 7 8 8 7 8 7
7 3 4 4 2 7 4 5 4 4 8 10 10 9 9 12 12 12 12 10 9 8 7 5 3 2 1 0 2 3 3 3 3 3 3 4 5 5 5 5 5 6 6 6 8 8 9 9 9
3 5 3 4 5 3 4 3 6 6 6 9 10 11 10 9 10 12 13 12 10 8 8 6 4 3 2 1 2 3 3 3 4 3 4 5 5 5 5 6 6 6 6 7 8 9 7 9 10
3 2 3 5 5 5 5 4 3 6 7 11 12 12 11 9 9 10 13 12 10 9 8 6 5 4 3 2 3 3 3 3 3 4 5 5 5 5 6 6 5 6 6 7 8 9 8 7 9
4 4 5 3 3 4 4 2 3 6 7 7 9 9 10 9 9 9 10 11 9 9 7 6 5 5 4 3 3 3 4 5 5 6 5 4 4 4 6 6 6 7 7 7 8 8 10 9 10
4 4 2 2 3 2 2 3 6 6 6 6 7 7 7 8 9 9 11 11 10 10 8 7 6 6 5 4 4 3 4 5 5 5 5 5 4 4 5 7 6 6 7 8 8 8 9 10 11
2 3 2 2 3 2 3 5 5 7 6 4 3 4 5 6 8 9 11 11 11 10 9 8 7 6 5 4 4 4 4 3 3 4 5 5 4 5 6 6 7 8 8 10 8 7 9 9 10
3 0 2 3 4 4 6 6 3 2 4 5 6 7 8 8 8 9 10 11 11 10 9 8 7 6 5 4 4 4 3 4 4 5 5 5 5 6 7 7 8 8 8 8 8 6 9 8 9
3 4 2 3 3 4 7 5 5 7 8 10 10 10 10 9 9 10 10 11 10 10 8 8 7 6 5 5 4 3 4 5 5 5 6 6 6 6 7 7 7 8 8 8 7 7 8 8 8
4 3 3 3 2 2 5 7 2 5 4 5 8 9 10 11 11 11 10 10 9 9 8 7 7 6 5 5 4 4 4 4 5 5 6 6 6 6 7 7 8 8 8 7 6 8 9 9 9
1 3 4 3 4 4 4 10 3 4 3 4 6 5 7 10 10 10 10 10 9 9 8 8 8 7 6 5 4 4 5 5 5 5 5 5 6 6 7 7 8 8 9 7 7 9 9 8 9
Wind_Direction
243 238 235 255 247 99 82 79 102 112 77 57 46 62 69 46 46 112 116 62 56 50 41 21 18 22 23 24 24 24 23 22 21 19 18 17 16 15 14 12 10 9 7 5 3 1 359 357 356
260 245 253 236 263 112 99 111 96 81 105 116 79 85 87 81 89 104 104 72 68 60 50 26 23 25 26 25 25 24 22 21 19 17 15 13 12 12 11 10 8 6 4 2 0 358 356 354 352
268 260 256 269 39 43 110 104 103 105 123 113 73 40 63 94 98 91 102 101 80 68 63 31 28 29 28 26 25 23 21 18 17 15 12 10 9 8 8 7 5 3 1 359 357 354 353 350 348
275 254 237 56 70 46 103 115 124 127 104 99 113 90 67 44 77 106 115 86 74 67 68 43 31 30 29 26 24 22 19 16 13 12 9 7 5 4 4 3 2 359 357 356 354 351 350 347 344
236 259 164 94 84 86 100 122 149 140 128 136 117 104 97 88 98 112 106 84 76 70 66 55 37 30 28 26 22 19 16 13 10 9 7 4 2 1 1 0 358 356 354 353 351 349 347 344 341
263 269 247 114 113 108 114 140 156 115 111 117 116 113 117 131 124 120 117 98 84 75 61 52 36 28 23 23 19 14 12 10 7 6 4 1 359 358 358 358 355 352 351 350 348 346 345 342 340
303 324 47 103 128 145 137 153 153 125 135 146 133 112 132 150 135 137 122 106 90 77 64 55 47 23 12 13 14 8 8 6 3 3 2 359 357 356 354 355 350 348 348 347 345 344 343 341 339
318 246 110 123 148 138 127 133 67 98 100 73 80 141 157 152 143 141 127 118 112 94 71 44 49 30 9 357 3 3 3 3 0 1 360 359 356 352 349 350 344 345 345 344 343 343 341 340 340
286 247 104 84 136 126 133 129 75 44 99 106 52 42 123 134 144 149 158 154 124 95 80 59 42 26 7 353 0 359 357 357 358 357 356 356 344 340 341 342 342 343 343 342 342 342 341 341 339
350 41 61 25 37 128 149 141 137 151 141 143 109 93 115 135 154 172 175 141 109 89 71 66 46 28 12 357 351 340 347 350 347 354 351 344 343 335 345 341 339 341 339 341 339 338 341 338 329
37 67 87 47 51 118 141 132 156 176 185 181 161 146 146 158 170 177 159 122 107 99 76 65 55 42 19 347 339 329 330 345 339 352 345 347 345 333 341 336 333 333 334 336 331 333 328 325 325
78 67 87 83 68 118 138 140 178 217 76 114 149 151 159 172 179 178 155 127 121 110 100 72 50 54 21 347 322 315 335 340 330 343 342 352 338 334 338 330 325 327 325 325 329 326 320 322 320
95 102 88 99 103 112 130 170 199 206 112 104 128 148 167 180 178 167 140 134 131 120 112 92 55 45 9 326 316 338 329 329 323 334 342 351 342 338 335 327 323 322 322 329 328 319 319 320 317
109 119 121 130 116 129 182 188 208 207 133 137 147 163 177 184 175 158 155 163 143 122 113 93 52 19 341 337 338 317 317 313 329 336 343 347 355 341 332 324 320 319 326 327 319 318 318 315 314
132 130 144 162 166 158 226 229 210 170 144 157 167 177 185 187 179 172 170 162 136 124 118 110 113 355 344 345 328 312 299 318 324 334 342 355 1 337 333 319 318 319 324 320 316 312 311 316 318
183 183 187 178 176 138 209 267 179 146 159 174 182 187 190 193 185 180 164 151 135 137 131 119 55 345 348 340 309 296 302 324 325 345 343 3 348 335 329 318 313 317 321 316 312 309 320 314 309
205 236 173 155 185 158 211 261 129 147 173 185 191 195 192 195 194 185 164 153 147 145 139 151 143 283 343 327 314 315 324 334 334 340 341 344 333 331 327 311 307 318 316 310 314 323 311 308 307
349 329 342 159 179 187 217 245 180 173 188 196 197 202 198 200 198 187 166 156 148 144 153 166 160 142 2 348 336 323 335 328 313 314 316 332 326 327 321 303 312 315 310 307 308 306 304 302 302
329 314 297 90 147 203 242 254 216 175 192 206 205 204 207 205 193 180 165 154 151 159 171 170 163 87 33 18 337 323 321 306 299 296 318 330 322 317 308 308 308 309 304 303 302 304 305 303 299
282 287 306 102 155 215 272 273 248 175 193 203 212 211 209 203 188 176 166 162 166 169 167 164 155 109 27 52 299 275 280 279 278 294 327 319 309 302 309 308 304 299 299 299 299 302 299 303 309
278 287 354 343 266 219 268 270 158 151 183 198 218 227 217 203 192 178 171 171 170 170 159 162 155 185 217 336 284 299 301 300 316 333 320 301 297 298 300 297 294 294 295 294 297 295 300 305 302
319 53 357 303 298 255 189 278 191 171 198 212 217 223 226 217 193 179 173 174 172 159 139 151 176 199 208 236 274 302 300 301 304 299 288 297 304 306 301 294 295 294 292 292 297 307 298 298 301
330 34 282 279 269 277 207 253 196 167 209 216 215 217 217 210 193 178 171 169 160 143 144 163 184 202 203 219 260 274 283 288 294 297 299 305 304 300 298 296 299 296 293 291 293 297 295 294 292
300 272 234 262 262 256 172 230 246 195 195 183 190 198 199 193 183 167 154 150 142 138 147 168 192 207 201 216 247 261 281 291 300 304 306 304 297 295 297 303 301 296 293 293 293 295 297 296 293
234 280 238 225 222 217 110 239 253 158 151 167 178 179 177 174 169 160 153 155 152 153 162 178 195 209 205 213 238 258 270 277 283 293 296 298 295 295 295 306 297 294 292 294 295 299 300 300 300
290 299 337 302 311 331 205 233 242 146 138 132 139 157 167 173 169 167 163 162 161 165 171 183 195 204 203 213 236 248 262 265 267 278 284 287 286 287 290 296 295 294 296 302 300 301 302 305 304
290 132 37 305 282 268 250 221 158 115 174 190 201 204 205 193 179 171 165 165 166 170 176 184 189 197 203 212 232 244 259 271 271 278 279 276 277 289 297 296 294 294 295 296 302 302 303 306 306
287 331 266 247 285 289 283 263 211 195 214 207 210 211 207 191 180 174 172 171 170 169 172 177 185 197 202 210 228 241 244 256 264 272 274 276 281 288 292 292 294 295 296 297 305 308 304 307 307
185 213 232 268 285 250 287 275 181 152 163 193 210 209 197 185 182 179 175 170 164 162 166 176 189 196 203 210 221 246 257 264 269 269 271 277 284 289 291 293 295 296 297 299 306 306 305 307 310
274 236 206 224 236 213 254 271 211 153 164 200 222 207 181 177 176 174 169 165 166 169 174 184 190 193 199 202 214 241 254 262 265 270 279 286 288 288 289 291 293 297 301 298 299 302 305 303 307